This demonstration page uses our WeatherBlox Daily Observations layout. Learn more.

Left ArrowRight Arrow

44.8408, -93.29828

Hourly Observations for August 18, 2021

Temp ( °F °C ) Dew Point ( °F °C ) Humidity (%) Winds ( mph kmh ) Pressure ( in mb ) Visibility ( mi km ) Precip ( " mm )
12:53 am 00:53 Partly Cloudy 75 23.9 65 18.3 71 71 S 8 13 29.95 1014 10 16 0.00 0.00
1:53 am 01:53 Partly Cloudy 74 23.3 64 17.8 71 71 S 8 13 29.95 1014 10 16 0.00 0.00
2:53 am 02:53 Partly Cloudy 72 22.2 64 17.8 76 76 SSE 6 9 29.96 1015 10 16 0.00 0.00
3:53 am 03:53 Partly Cloudy 72 22.2 64 17.8 76 76 S 6 9 29.96 1015 10 16 0.00 0.00
4:53 am 04:53 Clear 70 21.1 64 17.8 82 82 ESE 6 9 29.98 1015 10 16 0.00 0.00
5:53 am 05:53 Mostly Clear 69 20.6 64 17.8 84 84 ESE 8 13 29.98 1015 10 16 0.00 0.00
6:53 am 06:53 Partly Cloudy 69 20.6 64 17.8 84 84 ESE 8 13 30.00 1016 10 16 0.00 0.00
7:53 am 07:53 Mostly Sunny 71 21.7 64 17.8 79 79 SE 7 11 30.01 1016 10 16 0.00 0.00
8:53 am 08:53 Mostly Sunny 74 23.3 66 18.9 76 76 SSE 7 11 30.01 1016 10 16 0.00 0.00
9:53 am 09:53 Mostly Sunny 77 25 67 19.4 71 71 SSE 7 11 30.01 1016 10 16 0.00 0.00
10:53 am 10:53 Mostly Sunny 81 27.2 68 20 65 65 SE 9 15 30.01 1016 10 16 0.00 0.00
11:53 am 11:53 Mostly Sunny 84 28.9 68 20 59 59 SE 8 13 30.01 1016 10 16 0.00 0.00
12:53 pm 12:53 Partly Cloudy 87 30.6 66 18.9 50 50 S 13 20 30.01 1016 10 16 0.00 0.00
1:53 pm 13:53 Partly Cloudy 89 31.7 67 19.4 48 48 S 12 19 30.01 1016 10 16 0.00 0.00
2:53 pm 14:53 Partly Cloudy 88 31.1 66 18.9 48 48 S 13 20 30.01 1016 10 16 0.00 0.00
3:53 pm 15:53 Partly Cloudy 89 31.7 64 17.8 43 43 S 13 20 29.99 1016 10 16 0.00 0.00
4:53 pm 16:53 Partly Cloudy 90 32.2 63 17.2 41 41 S 9 15 29.99 1016 10 16 0.00 0.00
5:53 pm 17:53 Partly Cloudy 88 31.1 64 17.8 45 45 SSW 8 13 29.99 1016 10 16 0.00 0.00
6:53 pm 18:53 Mostly Sunny 88 31.1 64 17.8 45 45 S 9 15 29.99 1016 10 16 0.00 0.00
7:53 pm 19:53 Mostly Sunny 86 30 65 18.3 49 49 S 8 13 29.99 1016 10 16 0.00 0.00
8:53 pm 20:53 Clear 81 27.2 67 19.4 62 62 SSE 8 13 30.00 1016 10 16 0.00 0.00
9:53 pm 21:53 Clear 79 26.1 67 19.4 67 67 SSE 8 13 30.01 1016 10 16 0.00 0.00
10:53 pm 22:53 Clear 78 25.6 66 18.9 67 67 SSE 8 13 30.02 1017 10 16 0.00 0.00
11:53 pm 23:53 Clear 77 25 66 18.9 69 69 SSE 8 13 30.03 1017 10 16 0.00 0.00

Powered by AerisWeather